Location: Ceske Budejovice
(48.9830°N, 14.4670°E)
Time: 22:46:42
(UTC+02:00)

ISS - Pass Details

Date: 30 March 2019
Orbit: 408 x 410 km, 51.6° (Epoch: 22 April)

Event Time Altitude Azimuth Distance (km) Brightness Sun altitude
Rises 19:14:14 0° 273° (W) 2,337 2.0 -8.0°
Reaches altitude 10° 19:16:21 10° 279° (W) 1,475 0.7 -8.4°
Maximum altitude 19:19:35 51° 357° (N) 520 -3.2 -8.9°
Drops below altitude 10° 19:22:50 10° 75° (ENE) 1,474 -1.5 -9.4°
Enters shadow 19:22:50 10° 75° (ENE) 1,477 -1.5 -9.4°
